This is the latest recevied weather packets stored in our database for station/object DL1EEM-13. If no packets are shown the sender has not sent any weather packets the latest 10 day(s).
| Time | Temp. | Humidity | Pressure | Rain* | Wind** | Luminosity | Snow |
|---|---|---|---|---|---|---|---|
| 1777275293 | 7.22° C | 59% | 1024 hPa | - | - | - | - |
| 1777274392 | 7.22° C | 59% | 1024 hPa | - | - | - | - |
| 1777273492 | 6.67° C | 60% | 1024 hPa | - | - | - | - |
| 1777272592 | 6.11° C | 61% | 1024.1 hPa | - | - | - | - |
| 1777271692 | 6.11° C | 59% | 1024.1 hPa | - | - | - | - |
| 1777270792 | 5.56° C | 59% | 1024 hPa | - | - | - | - |
| 1777269892 | 5° C | 63% | 1024 hPa | - | - | - | - |
| 1777268992 | 5° C | 64% | 1024 hPa | - | - | - | - |
| 1777267192 | 3.89° C | 68% | 1023.8 hPa | - | - | - | - |
| 1777266292 | 3.89° C | 68% | 1023.8 hPa | - | - | - | - |
| 1777265392 | 3.89° C | 67% | 1023.7 hPa | - | - | - | - |
| 1777264491 | 3.89° C | 66% | 1023.6 hPa | - | - | - | - |
| 1777263591 | 3.89° C | 66% | 1023.4 hPa | - | - | - | - |
| 1777262690 | 3.89° C | 67% | 1023.3 hPa | - | - | - | - |
| 1777261790 | 3.89° C | 67% | 1023.3 hPa | - | - | - | - |
| 1777260890 | 3.89° C | 66% | 1023.4 hPa | - | - | - | - |
| 1777259990 | 3.89° C | 67% | 1023.4 hPa | - | - | - | - |
| 1777259091 | 3.89° C | 66% | 1023.4 hPa | - | - | - | - |
| 1777258191 | 4.44° C | 66% | 1023.3 hPa | - | - | - | - |
| 1777257291 | 4.44° C | 66% | 1023.4 hPa | - | - | - | - |
| 1777256391 | 4.44° C | 66% | 1023.4 hPa | - | - | - | - |
| 1777255491 | 4.44° C | 65% | 1023.5 hPa | - | - | - | - |
| 1777254591 | 5° C | 65% | 1023.4 hPa | - | - | - | - |
| 1777253691 | 5° C | 65% | 1023.3 hPa | - | - | - | - |
| 1777252790 | 5° C | 64% | 1023.3 hPa | - | - | - | - |
* Rain since midnight (hover to see other rain measurements)
** Current wind speed in m/s (hover to see current wind gust speed)